Location: Geçitköy
(36.7327°N, 29.8010°E)
Time: 19:01:31
(UTC+00:00)

Cosmos 304 Rocket - Pass Details

Date: 12 January 2026
Orbit: 669 x 676 km, 74.0° (Epoch: 11 February)

Event Time Altitude Azimuth Distance (km) Brightness Sun altitude
Rises 15:34:32 0° 345° (NNW) 3,032 7.0 -6.2°
Reaches altitude 10° 15:36:52 10° 348° (NNW) 2,113 6.2 -6.6°
Maximum altitude 15:41:35 65° 71° (ENE) 743 3.7 -7.5°
Drops below altitude 10° 15:46:16 10° 153° (SSE) 2,094 6.2 -8.4°
Sets 15:48:34 0° 156° (SSE) 3,002 7.0 -8.8°
